| time (UTC) | temp F | wind direction | speed knots | gust knots | rain 1hr in | rain 24hr in | rain mn in | humidity % | barometer mb |
| 20260504190014 | 62 | 319 | 1.7 | 3.5 | 0.00 | 0.00 | 0.00 | 31 | 1011.1 |
| 20260504184528 | 62 | 292 | 0.9 | 5.2 | 0.00 | 0.00 | 0.00 | 31 | 1011.1 |
| 20260504183022 | 61 | 342 | 1.7 | 3.5 | 0.00 | 0.00 | 0.00 | 30 | 1011.4 |
| 20260504181525 | 62 | 146 | 0.0 | 3.5 | 0.00 | 0.00 | 0.00 | 28 | 1011.6 |
| 20260504180028 | 61 | 167 | 1.7 | 3.5 | 0.00 | 0.00 | 0.00 | 31 | 1011.8 |
| 20260504174516 | 60 | 198 | 0.0 | 2.6 | 0.00 | 0.00 | 0.00 | 34 | 1012.0 |
| 20260504173021 | 59 | 59 | 0.0 | 3.5 | 0.00 | 0.00 | 0.00 | 34 | 1012.1 |
| 20260504171506 | 58 | 75 | 0.9 | 3.5 | 0.00 | 0.00 | 0.00 | 37 | 1012.3 |
| 20260504081513 | 37 | 122 | 0.0 | 0.9 | 0.00 | 0.00 | 0.00 | 56 | 1014.0 |
| 20260504044520 | 49 | 174 | 0.0 | 0.0 | 0.00 | 0.00 | 0.00 | 34 | 1014.3 |
| 20260504043027 | 50 | 174 | 0.0 | 0.0 | 0.00 | 0.00 | 0.00 | 30 | 1014.3 |
| 20260504041531 | 50 | 86 | 0.0 | 0.0 | 0.00 | 0.00 | 0.00 | 30 | 1014.4 |
| 20260504040022 | 52 | 86 | 0.0 | 3.5 | 0.00 | 0.00 | 0.00 | 30 | 1014.3 |
| 20260504034523 | 53 | 46 | 0.0 | 2.6 | 0.00 | 0.00 | 0.00 | 27 | 1014.2 |
| 20260504033023 | 54 | 131 | 0.0 | 1.7 | 0.00 | 0.00 | 0.00 | 26 | 1014.0 |
| 20260504031509 | 55 | 28 | 1.7 | 7.0 | 0.00 | 0.00 | 0.00 | 25 | 1013.9 |
| 20260504030011 | 56 | 49 | 3.5 | 5.2 | 0.00 | 0.00 | 0.00 | 24 | 1013.7 |
| 20260504024515 | 58 | 38 | 0.9 | 6.1 | 0.00 | 0.00 | 0.00 | 22 | 1013.6 |
| 20260504023020 | 59 | 46 | 3.5 | 5.2 | 0.00 | 0.00 | 0.00 | 21 | 1013.5 |
| 20260504021525 | 61 | 25 | 1.7 | 2.6 | 0.00 | 0.00 | 0.00 | 19 | 1013.4 |
| 20260504020010 | 64 | 64 | 0.0 | 1.7 | 0.00 | 0.00 | 0.00 | 18 | 1013.4 |
| 20260504014519 | 65 | 295 | 1.7 | 5.2 | 0.00 | 0.00 | 0.00 | 17 | 1013.5 |
| 20260504013016 | 66 | 290 | 1.7 | 5.2 | 0.00 | 0.00 | 0.00 | 18 | 1013.5 |
| 20260504011522 | 67 | 290 | 2.6 | 4.3 | 0.00 | 0.00 | 0.00 | 19 | 1013.6 |
| 20260504010024 | 67 | 303 | 2.6 | 4.3 | 0.00 | 0.00 | 0.00 | 20 | 1013.7 |
| 20260504004516 | 67 | 335 | 2.6 | 7.0 | 0.00 | 0.00 | 0.00 | 20 | 1013.7 |
| 20260504003029 | 68 | 337 | 2.6 | 6.1 | 0.00 | 0.00 | 0.00 | 20 | 1013.7 |
| 20260504001526 | 68 | 301 | 2.6 | 7.8 | 0.00 | 0.00 | 0.00 | 21 | 1013.9 |
| 20260504000022 | 68 | 322 | 3.5 | 9.6 | 0.00 | 0.00 | 0.00 | 19 | 1013.9 |
| 20260503234526 | 68 | 283 | 5.2 | 10.4 | 0.00 | 0.00 | 0.00 | 19 | 1013.9 |
| 20260503233016 | 65 | 307 | 3.5 | 7.0 | 0.00 | 0.00 | 0.00 | 22 | 1013.9 |
| 20260503231523 | 66 | 321 | 3.5 | 7.0 | 0.00 | 0.00 | 0.00 | 20 | 1014.1 |
| 20260503230026 | 67 | 302 | 4.3 | 10.4 | 0.00 | 0.00 | 0.00 | 20 | 1014.5 |
| 20260503224524 | 68 | 281 | 1.7 | 8.7 | 0.00 | 0.00 | 0.00 | 16 | 1014.2 |
| 20260503223026 | 68 | 289 | 4.3 | 10.4 | 0.00 | 0.00 | 0.00 | 17 | 1014.5 |
| 20260503221521 | 68 | 244 | 2.6 | 7.0 | 0.00 | 0.00 | 0.00 | 16 | 1014.5 |
| 20260503220016 | 68 | 270 | 3.5 | 7.8 | 0.00 | 0.00 | 0.00 | 18 | 1014.7 |
| 20260503214521 | 67 | 272 | 1.7 | 9.6 | 0.00 | 0.00 | 0.00 | 15 | 1015.1 |
| 20260503213025 | 67 | 300 | 5.2 | 9.6 | 0.00 | 0.00 | 0.00 | 15 | 1015.5 |
| 20260503211528 | 67 | 139 | 0.0 | 6.1 | 0.00 | 0.00 | 0.00 | 15 | 1015.6 |
| 20260503210014 | 67 | 195 | 5.2 | 8.7 | 0.00 | 0.00 | 0.00 | 16 | 1015.8 |
| 20260503204523 | 67 | 260 | 4.3 | 9.6 | 0.00 | 0.00 | 0.00 | 19 | 1015.8 |
| 20260503203022 | 65 | 194 | 4.3 | 9.6 | 0.00 | 0.00 | 0.00 | 18 | 1016.0 |
| 20260503201528 | 64 | 299 | 2.6 | 5.2 | 0.00 | 0.00 | 0.00 | 21 | 1016.1 |
| 20260503200012 | 65 | 266 | 3.5 | 6.1 | 0.00 | 0.00 | 0.00 | 20 | 1016.2 |
| 20260503194517 | 65 | 18 | 2.6 | 6.1 | 0.00 | 0.00 | 0.00 | 21 | 1016.2 |
| 20260503193022 | 64 | 294 | 1.7 | 7.0 | 0.00 | 0.00 | 0.00 | 20 | 1016.3 |
| 20260503191529 | 64 | 285 | 3.5 | 7.0 | 0.00 | 0.00 | 0.00 | 20 | 1016.5 |